La Grande, OR

6:18 AM PST on December 06, 2019 (GMT -0800)
La Grande-Union County

Weather History for KLGD - September, 2019

Change the Weather History Date:

Monday, September 2, 2019

  Actual Average Record
Temperature  
Mean Temperature 73 °F -  
Max Temperature 89 °F 76 °F 102 °F (2017)
Min Temperature 57 °F 44 °F 30 °F (2008)
Cooling Degree Days 8    
Growing Degree Days 23 (Base 50)    
Moisture  
Dew Point 48 °F    
Average Humidity 44    
Maximum Humidity 67    
Minimum Humidity 25    
Precipitation  
Precipitation 0.00 in - - ()
Sea Level Pressure  
Sea Level Pressure 30.44 in    
Wind  
Wind Speed 10 mph (NW)    
Max Wind Speed 16 mph    
Max Gust Speed -    
Visibility 10 miles    
Events      
Averages and records for this station are not official NWS values.
T = Trace of Precipitation, MM = Missing Value Source: NWS Daily Summary

Daily Weather History Graph

Daily Weather History Graph

Search for Another Location

Airport or City:

Astronomy

Sep. 02, 2019 Rise Set
Actual Time 6:14 AM PDT 7:27 PM PDT
Civil Twilight 5:44 AM PDT 7:58 PM PDT
Nautical Twilight 5:07 AM PDT 8:34 PM PDT
Astronomical Twilight 4:28 AM PDT 9:13 PM PDT
Moon 10:12 AM PDT (9/2) 9:40 PM PDT (9/2)
Length of Visible Light 14h 13m
Length of Day
13h 13m
Waxing Crescent, 16% of the Moon is Illuminated
Sep 2
Waxing Crescent
Sep 5
First Quarter
Sep 13
Full
Sep 21
Last Quarter
Sep 28
New

Hourly Weather History & Observations

Time (PDT) Temp. Dew Point Humidity Pressure Visibility Wind Dir Wind Speed Gust Speed Precip Events Conditions
12:56 AM 68.0 °F 46.9 °F 47% 30.43 in 10.0 mi West 16.1 mph - N/A   Clear
1:56 AM 66.9 °F 46.9 °F 49% 30.43 in 10.0 mi WNW 16.1 mph - N/A   Clear
2:56 AM 64.9 °F 46.9 °F 52% 30.44 in 10.0 mi WNW 15.0 mph - N/A   Clear
3:56 AM 66.0 °F 46.0 °F 48% 30.45 in 10.0 mi WNW 13.8 mph - N/A   Clear
4:56 AM 62.1 °F 46.9 °F 58% 30.45 in 10.0 mi WNW 8.1 mph - N/A   Clear
5:56 AM 59.0 °F 46.9 °F 64% 30.47 in 10.0 mi NW 9.2 mph - N/A   Clear
6:56 AM 57.9 °F 46.9 °F 67% 30.48 in 10.0 mi Calm Calm - N/A   Clear
7:56 AM 61.0 °F 48.9 °F 64% 30.49 in 10.0 mi Calm Calm - N/A   Clear
8:56 AM 66.9 °F 48.0 °F 51% 30.48 in 10.0 mi Variable 4.6 mph - N/A   Clear
9:56 AM 72.0 °F 48.9 °F 44% 30.48 in 10.0 mi North 9.2 mph - N/A   Clear
10:56 AM 75.9 °F 48.9 °F 38% 30.48 in 10.0 mi NNE 6.9 mph - N/A   Clear
11:56 AM 79.0 °F 48.0 °F 34% 30.46 in 10.0 mi Variable 4.6 mph - N/A   Clear
12:56 PM 81.0 °F 48.9 °F 33% 30.44 in 10.0 mi SSW 4.6 mph - N/A   Clear
1:56 PM 84.9 °F 48.9 °F 29% 30.43 in 10.0 mi North 5.8 mph - N/A   Clear
2:56 PM 86.0 °F 48.0 °F 27% 30.40 in 10.0 mi North 5.8 mph - N/A   Clear
3:56 PM 88.0 °F 48.0 °F 25% 30.39 in 10.0 mi Calm Calm - N/A   Clear
4:56 PM 89.1 °F 51.1 °F 27% 30.38 in 10.0 mi North 10.4 mph - N/A   Clear
5:56 PM 86.0 °F 51.1 °F 30% 30.38 in 10.0 mi NNW 11.5 mph - N/A   Clear
6:56 PM 80.1 °F 51.1 °F 36% 30.40 in 10.0 mi NW 9.2 mph - N/A   Clear
7:56 PM 75.9 °F 50.0 °F 40% 30.41 in 10.0 mi NNW 8.1 mph - N/A   Clear
8:56 PM 71.1 °F 50.0 °F 47% 30.42 in 10.0 mi NNW 9.2 mph - N/A   Clear
9:56 PM 75.0 °F 48.0 °F 38% 30.43 in 10.0 mi NW 10.4 mph - N/A   Clear
10:56 PM 71.1 °F 48.0 °F 44% 30.43 in 10.0 mi NW 5.8 mph - N/A   Clear
11:56 PM 64.9 °F 48.0 °F 54% 30.43 in 10.0 mi NW 4.6 mph - N/A   Clear